Time,TemperatureF,DewpointF,PressureIn,WindDirection,WindDirectionDegrees,WindSpeedMPH,WindSpeedGustMPH,Humidity,HourlyPrecipIn,Conditions,Clouds,dailyrainin,SoftwareType,DateUTC
2013-04-06 00:02:00,58.6,47.5,28.57,SSE,157,6.1,10.3,65,0.00,,,0.00,Rainwise IP-100,2013-04-06 05:02:00,
2013-04-06 00:07:00,58.6,47.5,28.57,ESE,112,6.1,10.7,66,0.00,,,0.00,Rainwise IP-100,2013-04-06 05:07:00,
2013-04-06 00:12:00,58.6,47.5,28.57,SE,135,7.0,9.6,66,0.00,,,0.00,Rainwise IP-100,2013-04-06 05:12:00,
2013-04-06 00:17:00,58.5,47.5,28.57,SSE,157,5.1,9.8,66,0.00,,,0.00,Rainwise IP-100,2013-04-06 05:17:00,
2013-04-06 00:22:00,58.3,47.0,28.57,SSE,157,5.8,9.3,66,0.00,,,0.00,Rainwise IP-100,2013-04-06 05:22:00,
2013-04-06 00:27:00,58.2,47.5,28.57,SE,135,4.2,10.7,67,0.00,,,0.00,Rainwise IP-100,2013-04-06 05:27:00,
2013-04-06 00:32:00,58.0,47.5,28.58,SE,135,4.2,7.7,67,0.00,,,0.00,Rainwise IP-100,2013-04-06 05:32:00,
2013-04-06 00:37:00,57.8,47.5,28.57,SE,135,4.0,7.5,67,0.00,,,0.00,Rainwise IP-100,2013-04-06 05:37:00,
2013-04-06 00:42:00,57.6,47.5,28.57,SE,135,3.5,6.8,68,0.00,,,0.00,Rainwise IP-100,2013-04-06 05:42:00,
2013-04-06 00:47:00,57.3,47.5,28.57,ESE,112,5.6,9.1,68,0.00,,,0.00,Rainwise IP-100,2013-04-06 05:47:00,
2013-04-06 00:52:00,57.1,47.0,28.57,SE,135,4.2,7.2,69,0.00,,,0.00,Rainwise IP-100,2013-04-06 05:52:00,
2013-04-06 00:57:00,56.9,47.5,28.56,SE,135,3.7,8.2,70,0.00,,,0.00,Rainwise IP-100,2013-04-06 05:57:00,
2013-04-06 01:02:00,56.7,47.0,28.57,SSE,157,4.9,7.2,70,0.00,,,0.00,Rainwise IP-100,2013-04-06 06:02:00,
2013-04-06 01:07:00,56.5,47.5,28.56,SSE,157,4.2,7.0,71,0.00,,,0.00,Rainwise IP-100,2013-04-06 06:07:00,
2013-04-06 01:12:00,56.3,47.5,28.57,ESE,112,4.0,8.6,71,0.00,,,0.00,Rainwise IP-100,2013-04-06 06:12:00,
2013-04-06 01:17:00,56.3,47.5,28.56,SE,135,7.5,7.9,72,0.00,,,0.00,Rainwise IP-100,2013-04-06 06:17:00,
2013-04-06 01:22:00,56.2,47.0,28.56,ESE,112,1.9,7.9,72,0.00,,,0.00,Rainwise IP-100,2013-04-06 06:22:00,
2013-04-06 01:27:00,56.0,47.0,28.56,SE,135,1.9,6.1,72,0.00,,,0.00,Rainwise IP-100,2013-04-06 06:27:00,
2013-04-06 01:32:00,55.8,47.5,28.56,SSE,157,5.8,7.0,73,0.00,,,0.00,Rainwise IP-100,2013-04-06 06:32:00,
2013-04-06 01:37:00,55.6,47.5,28.56,SE,135,3.0,8.6,73,0.00,,,0.00,Rainwise IP-100,2013-04-06 06:37:00,
2013-04-06 01:42:00,55.5,47.5,28.56,SE,135,4.0,7.0,73,0.00,,,0.00,Rainwise IP-100,2013-04-06 06:42:00,
2013-04-06 01:47:00,55.4,47.5,28.56,ESE,112,3.3,7.0,74,0.00,,,0.00,Rainwise IP-100,2013-04-06 06:47:00,
2013-04-06 01:52:00,55.3,47.5,28.55,SSE,157,4.0,5.4,74,0.00,,,0.00,Rainwise IP-100,2013-04-06 06:52:00,
2013-04-06 01:57:00,55.1,47.5,28.55,SE,135,4.4,5.8,74,0.00,,,0.00,Rainwise IP-100,2013-04-06 06:57:00,
2013-04-06 02:02:00,54.9,47.5,28.54,SE,135,5.1,6.8,75,0.00,,,0.00,Rainwise IP-100,2013-04-06 07:02:00,
2013-04-06 02:07:00,54.7,47.0,28.54,ESE,112,2.3,6.1,75,0.00,,,0.00,Rainwise IP-100,2013-04-06 07:07:00,
2013-04-06 02:12:00,54.6,47.0,28.54,ESE,112,1.9,7.2,75,0.00,,,0.00,Rainwise IP-100,2013-04-06 07:12:00,
2013-04-06 02:17:00,54.6,47.5,28.54,SE,135,4.0,5.4,76,0.00,,,0.00,Rainwise IP-100,2013-04-06 07:17:00,
2013-04-06 02:22:00,54.6,47.5,28.54,SE,135,3.3,6.1,76,0.00,,,0.00,Rainwise IP-100,2013-04-06 07:22:00,
2013-04-06 02:27:00,54.7,47.0,28.54,ESE,112,4.2,7.9,75,0.00,,,0.00,Rainwise IP-100,2013-04-06 07:27:00,
2013-04-06 02:32:00,54.9,47.5,28.53,SE,135,4.0,9.6,75,0.00,,,0.00,Rainwise IP-100,2013-04-06 07:32:00,
2013-04-06 02:37:00,55.1,47.5,28.53,SE,135,4.2,8.6,74,0.00,,,0.00,Rainwise IP-100,2013-04-06 07:37:00,
2013-04-06 02:42:00,55.2,47.5,28.52,SE,135,8.9,10.3,74,0.00,,,0.00,Rainwise IP-100,2013-04-06 07:42:00,
2013-04-06 02:47:00,55.4,47.0,28.52,SE,135,5.8,12.6,73,0.00,,,0.00,Rainwise IP-100,2013-04-06 07:47:00,
2013-04-06 02:52:00,55.8,47.0,28.52,SE,135,2.3,12.8,72,0.00,,,0.00,Rainwise IP-100,2013-04-06 07:52:00,
2013-04-06 02:57:00,56.1,47.0,28.52,ESE,112,7.5,10.7,72,0.00,,,0.00,Rainwise IP-100,2013-04-06 07:57:00,
2013-04-06 03:02:00,56.3,47.5,28.52,South,180,5.4,10.3,71,0.00,,,0.00,Rainwise IP-100,2013-04-06 08:02:00,
2013-04-06 03:07:00,56.4,47.5,28.52,SE,135,6.1,9.6,71,0.00,,,0.00,Rainwise IP-100,2013-04-06 08:07:00,
2013-04-06 03:12:00,56.4,47.5,28.52,SE,135,7.0,11.9,71,0.00,,,0.00,Rainwise IP-100,2013-04-06 08:12:00,
2013-04-06 03:17:00,56.4,47.5,28.52,South,180,7.0,12.6,71,0.00,,,0.00,Rainwise IP-100,2013-04-06 08:17:00,
2013-04-06 03:22:00,56.3,47.5,28.52,SE,135,5.6,11.7,71,0.00,,,0.00,Rainwise IP-100,2013-04-06 08:22:00,
2013-04-06 03:27:00,56.2,47.0,28.52,SSE,157,7.5,9.1,71,0.00,,,0.00,Rainwise IP-100,2013-04-06 08:27:00,
2013-04-06 03:32:00,56.1,47.0,28.52,SE,135,6.8,8.4,71,0.00,,,0.00,Rainwise IP-100,2013-04-06 08:32:00,
2013-04-06 03:37:00,55.9,47.0,28.51,SSE,157,4.7,10.0,71,0.00,,,0.00,Rainwise IP-100,2013-04-06 08:37:00,
2013-04-06 03:42:00,55.8,47.0,28.51,SE,135,3.5,9.1,72,0.00,,,0.00,Rainwise IP-100,2013-04-06 08:42:00,
2013-04-06 03:47:00,55.7,47.0,28.51,South,180,4.4,8.9,72,0.00,,,0.00,Rainwise IP-100,2013-04-06 08:47:00,
2013-04-06 03:52:00,55.7,47.0,28.51,SE,135,8.4,9.6,72,0.00,,,0.00,Rainwise IP-100,2013-04-06 08:52:00,
2013-04-06 03:57:00,55.6,47.5,28.51,ESE,112,5.1,8.4,73,0.00,,,0.00,Rainwise IP-100,2013-04-06 08:57:00,
2013-04-06 04:03:00,55.6,47.5,28.51,SSE,157,4.7,9.1,73,0.00,,,0.00,Rainwise IP-100,2013-04-06 09:03:00,
2013-04-06 04:08:00,55.5,47.5,28.51,SE,135,5.1,10.0,73,0.00,,,0.00,Rainwise IP-100,2013-04-06 09:08:00,
2013-04-06 04:13:00,55.4,47.0,28.51,SE,135,7.5,8.9,73,0.00,,,0.00,Rainwise IP-100,2013-04-06 09:13:00,
2013-04-06 04:18:00,55.4,47.0,28.51,SE,135,6.1,7.7,73,0.00,,,0.00,Rainwise IP-100,2013-04-06 09:18:00,
2013-04-06 04:23:00,55.3,47.0,28.50,SE,135,7.7,7.9,73,0.00,,,0.00,Rainwise IP-100,2013-04-06 09:23:00,
2013-04-06 04:28:00,55.1,47.5,28.50,ESE,112,4.2,9.6,74,0.00,,,0.00,Rainwise IP-100,2013-04-06 09:28:00,
2013-04-06 04:33:00,55.0,47.5,28.50,SSE,157,4.2,9.8,74,0.00,,,0.00,Rainwise IP-100,2013-04-06 09:33:00,
2013-04-06 04:38:00,55.0,47.5,28.50,SSE,157,5.8,7.9,74,0.00,,,0.00,Rainwise IP-100,2013-04-06 09:38:00,
2013-04-06 04:43:00,55.0,47.5,28.50,SE,135,7.2,12.1,74,0.00,,,0.00,Rainwise IP-100,2013-04-06 09:43:00,
2013-04-06 04:48:00,54.9,47.5,28.50,SE,135,7.5,11.4,74,0.00,,,0.00,Rainwise IP-100,2013-04-06 09:48:00,
2013-04-06 04:53:00,54.8,47.5,28.49,SSE,157,9.1,10.3,75,0.00,,,0.00,Rainwise IP-100,2013-04-06 09:53:00,
2013-04-06 04:58:00,54.7,47.0,28.50,SE,135,5.4,11.9,75,0.00,,,0.00,Rainwise IP-100,2013-04-06 09:58:00,
2013-04-06 05:03:00,54.6,47.0,28.50,SE,135,2.6,11.4,75,0.00,,,0.00,Rainwise IP-100,2013-04-06 10:03:00,
2013-04-06 05:08:00,54.5,47.5,28.50,SE,135,6.1,10.7,76,0.00,,,0.00,Rainwise IP-100,2013-04-06 10:08:00,
2013-04-06 05:13:00,54.4,47.5,28.50,SSE,157,4.2,11.7,76,0.00,,,0.00,Rainwise IP-100,2013-04-06 10:13:00,
2013-04-06 05:18:00,54.4,47.5,28.50,South,180,6.1,12.6,76,0.00,,,0.00,Rainwise IP-100,2013-04-06 10:18:00,
2013-04-06 05:23:00,54.3,47.5,28.50,SE,135,6.3,11.4,77,0.00,,,0.00,Rainwise IP-100,2013-04-06 10:23:00,
2013-04-06 05:28:00,54.3,47.5,28.51,SSE,157,10.3,12.1,77,0.00,,,0.00,Rainwise IP-100,2013-04-06 10:28:00,
2013-04-06 05:33:00,54.2,47.0,28.51,SSE,157,6.1,10.7,77,0.00,,,0.00,Rainwise IP-100,2013-04-06 10:33:00,
2013-04-06 05:38:00,54.2,47.0,28.52,SSE,157,3.7,10.3,77,0.00,,,0.00,Rainwise IP-100,2013-04-06 10:38:00,
2013-04-06 05:43:00,54.1,47.0,28.52,SSE,157,6.8,9.8,77,0.00,,,0.00,Rainwise IP-100,2013-04-06 10:43:00,
2013-04-06 05:48:00,54.0,47.5,28.52,SSW,202,4.4,9.1,78,0.00,,,0.00,Rainwise IP-100,2013-04-06 10:48:00,
2013-04-06 05:53:00,53.9,47.5,28.51,ESE,112,3.5,11.4,78,0.00,,,0.00,Rainwise IP-100,2013-04-06 10:53:00,
2013-04-06 05:58:00,53.9,47.5,28.51,SSE,157,6.1,9.3,78,0.00,,,0.00,Rainwise IP-100,2013-04-06 10:58:00,
2013-04-06 06:03:00,53.8,47.5,28.51,South,180,5.1,10.3,78,0.00,,,0.00,Rainwise IP-100,2013-04-06 11:03:00,
2013-04-06 06:08:00,53.6,47.0,28.51,SSE,157,7.0,13.3,78,0.00,,,0.00,Rainwise IP-100,2013-04-06 11:08:00,
2013-04-06 06:13:00,53.6,47.0,28.51,SE,135,11.9,11.9,78,0.00,,,0.00,Rainwise IP-100,2013-04-06 11:13:00,
2013-04-06 06:18:00,53.5,47.0,28.51,SSE,157,6.1,12.8,79,0.00,,,0.00,Rainwise IP-100,2013-04-06 11:18:00,
2013-04-06 06:23:00,53.4,47.0,28.51,SSE,157,3.0,9.1,79,0.00,,,0.00,Rainwise IP-100,2013-04-06 11:23:00,
2013-04-06 06:28:00,53.2,47.0,28.51,SSE,157,6.8,10.3,79,0.00,,,0.00,Rainwise IP-100,2013-04-06 11:28:00,
2013-04-06 06:33:00,53.2,47.0,28.51,SSE,157,4.9,11.7,79,0.00,,,0.00,Rainwise IP-100,2013-04-06 11:33:00,
2013-04-06 06:38:00,53.0,47.0,28.51,SSE,157,2.3,11.7,79,0.00,,,0.00,Rainwise IP-100,2013-04-06 11:38:00,
2013-04-06 06:39:00,53.0,47.0,28.51,South,180,5.6,11.7,80,0.00,,,0.00,Rainwise IP-100,2013-04-06 11:39:00,
2013-04-06 06:44:00,52.9,47.0,28.51,SSE,157,1.6,9.8,80,0.00,,,0.00,Rainwise IP-100,2013-04-06 11:44:00,
2013-04-06 06:49:00,52.8,47.0,28.51,SE,135,4.9,9.8,80,0.00,,,0.00,Rainwise IP-100,2013-04-06 11:49:00,
2013-04-06 06:54:00,52.6,47.0,28.51,SSE,157,4.0,7.7,81,0.00,,,0.00,Rainwise IP-100,2013-04-06 11:54:00,
2013-04-06 06:59:00,52.5,47.0,28.51,SSE,157,4.4,8.4,81,0.00,,,0.00,Rainwise IP-100,2013-04-06 11:59:00,
2013-04-06 07:04:00,52.3,47.0,28.51,SSE,157,3.3,8.6,81,0.00,,,0.00,Rainwise IP-100,2013-04-06 12:04:00,
2013-04-06 07:09:00,52.2,47.0,28.51,SE,135,7.0,8.4,82,0.00,,,0.00,Rainwise IP-100,2013-04-06 12:09:00,
2013-04-06 07:14:00,52.1,47.0,28.51,SE,135,4.7,8.4,82,0.00,,,0.00,Rainwise IP-100,2013-04-06 12:14:00,
2013-04-06 07:19:00,51.9,47.0,28.50,SSW,202,2.3,6.8,82,0.00,,,0.00,Rainwise IP-100,2013-04-06 12:19:00,
2013-04-06 07:24:00,51.8,47.0,28.51,SE,135,1.2,7.0,82,0.00,,,0.00,Rainwise IP-100,2013-04-06 12:24:00,
2013-04-06 07:29:00,51.6,47.0,28.52,SE,135,2.6,6.5,83,0.00,,,0.00,Rainwise IP-100,2013-04-06 12:29:00,
2013-04-06 07:34:00,51.4,47.0,28.51,SSE,157,2.3,6.3,83,0.00,,,0.00,Rainwise IP-100,2013-04-06 12:34:00,
2013-04-06 07:39:00,51.2,47.0,28.52,SSE,157,4.7,5.6,83,0.00,,,0.00,Rainwise IP-100,2013-04-06 12:39:00,
2013-04-06 07:44:00,51.0,47.0,28.52,SSE,157,2.3,5.4,84,0.00,,,0.00,Rainwise IP-100,2013-04-06 12:44:00,
2013-04-06 07:49:00,51.0,47.0,28.52,SE,135,4.2,5.6,84,0.00,,,0.00,Rainwise IP-100,2013-04-06 12:49:00,
2013-04-06 07:54:00,51.0,47.0,28.51,SE,135,2.1,7.2,84,0.00,,,0.00,Rainwise IP-100,2013-04-06 12:54:00,
2013-04-06 07:59:00,51.0,47.0,28.52,South,180,5.6,7.2,85,0.00,,,0.00,Rainwise IP-100,2013-04-06 12:59:00,
2013-04-06 08:04:00,51.0,47.0,28.51,SSE,157,4.0,7.0,85,0.00,,,0.00,Rainwise IP-100,2013-04-06 13:04:00,
2013-04-06 08:09:00,51.0,47.0,28.51,SSE,157,3.7,7.7,85,0.00,,,0.00,Rainwise IP-100,2013-04-06 13:09:00,
2013-04-06 08:14:00,51.3,47.0,28.52,SSE,157,5.4,7.2,84,0.00,,,0.00,Rainwise IP-100,2013-04-06 13:14:00,
2013-04-06 08:19:00,51.7,47.0,28.52,SE,135,4.4,8.9,83,0.00,,,0.00,Rainwise IP-100,2013-04-06 13:19:00,
2013-04-06 08:24:00,52.2,47.0,28.52,SSE,157,4.0,10.0,82,0.00,,,0.00,Rainwise IP-100,2013-04-06 13:24:00,
2013-04-06 08:29:00,52.6,47.0,28.52,South,180,5.6,8.6,81,0.00,,,0.00,Rainwise IP-100,2013-04-06 13:29:00,
2013-04-06 08:34:00,52.9,47.0,28.52,SE,135,4.4,9.3,80,0.00,,,0.00,Rainwise IP-100,2013-04-06 13:34:00,
2013-04-06 08:39:00,53.3,47.0,28.52,South,180,6.1,9.1,79,0.00,,,0.00,Rainwise IP-100,2013-04-06 13:39:00,
2013-04-06 08:44:00,53.6,47.0,28.52,SSE,157,9.6,9.6,78,0.00,,,0.00,Rainwise IP-100,2013-04-06 13:44:00,
2013-04-06 08:49:00,53.9,47.5,28.52,SE,135,7.9,11.9,78,0.00,,,0.00,Rainwise IP-100,2013-04-06 13:49:00,
2013-04-06 08:54:00,54.2,47.0,28.52,SSW,202,5.6,10.0,77,0.00,,,0.00,Rainwise IP-100,2013-04-06 13:54:00,
2013-04-06 08:59:00,54.6,47.5,28.52,SE,135,10.7,11.0,76,0.00,,,0.00,Rainwise IP-100,2013-04-06 13:59:00,
2013-04-06 09:04:00,55.0,47.5,28.52,SSE,157,8.2,12.4,75,0.00,,,0.00,Rainwise IP-100,2013-04-06 14:04:00,
2013-04-06 09:09:00,55.3,47.5,28.52,SSW,202,6.8,11.9,74,0.00,,,0.00,Rainwise IP-100,2013-04-06 14:09:00,
2013-04-06 09:14:00,55.6,47.5,28.52,South,180,4.4,10.7,73,0.00,,,0.00,Rainwise IP-100,2013-04-06 14:14:00,
2013-04-06 09:19:00,56.0,47.5,28.52,South,180,5.8,12.8,73,0.00,,,0.00,Rainwise IP-100,2013-04-06 14:19:00,
2013-04-06 09:24:00,56.5,47.5,28.53,SSE,157,5.8,13.3,71,0.00,,,0.00,Rainwise IP-100,2013-04-06 14:24:00,
2013-04-06 09:29:00,57.0,47.5,28.53,SSW,202,5.4,14.2,70,0.00,,,0.00,Rainwise IP-100,2013-04-06 14:29:00,
2013-04-06 09:34:00,57.5,47.5,28.52,South,180,12.1,12.4,69,0.00,,,0.00,Rainwise IP-100,2013-04-06 14:34:00,
2013-04-06 09:39:00,57.9,47.5,28.52,SSW,202,7.9,14.9,68,0.00,,,0.00,Rainwise IP-100,2013-04-06 14:39:00,
2013-04-06 09:44:00,58.1,47.5,28.52,SSE,157,9.3,14.2,67,0.00,,,0.00,Rainwise IP-100,2013-04-06 14:44:00,
2013-04-06 09:49:00,58.4,47.0,28.52,SSE,157,5.4,15.2,66,0.00,,,0.00,Rainwise IP-100,2013-04-06 14:49:00,
2013-04-06 09:54:00,58.9,47.5,28.52,SSW,202,3.7,11.7,66,0.00,,,0.00,Rainwise IP-100,2013-04-06 14:54:00,
2013-04-06 09:59:00,59.8,48.0,28.52,SSE,157,4.2,11.2,65,0.00,,,0.00,Rainwise IP-100,2013-04-06 14:59:00,
2013-04-06 10:04:00,60.2,47.5,28.52,SE,135,5.4,12.6,63,0.00,,,0.00,Rainwise IP-100,2013-04-06 15:04:00,
2013-04-06 10:09:00,60.6,47.5,28.52,South,180,8.6,14.2,63,0.00,,,0.00,Rainwise IP-100,2013-04-06 15:09:00,
2013-04-06 10:14:00,61.3,48.0,28.52,SSW,202,7.9,19.4,61,0.00,,,0.00,Rainwise IP-100,2013-04-06 15:14:00,
2013-04-06 10:19:00,61.8,47.0,28.52,SSW,202,10.5,17.0,58,0.00,,,0.00,Rainwise IP-100,2013-04-06 15:19:00,
2013-04-06 10:24:00,62.3,47.0,28.51,SSE,157,7.9,15.2,57,0.00,,,0.00,Rainwise IP-100,2013-04-06 15:24:00,
2013-04-06 10:29:00,62.7,47.0,28.51,SSW,202,7.9,19.4,56,0.00,,,0.00,Rainwise IP-100,2013-04-06 15:29:00,
2013-04-06 10:34:00,63.0,47.0,28.51,South,180,5.8,18.2,55,0.00,,,0.00,Rainwise IP-100,2013-04-06 15:34:00,
2013-04-06 10:39:00,63.5,47.0,28.51,ESE,112,13.8,18.2,55,0.00,,,0.00,Rainwise IP-100,2013-04-06 15:39:00,
2013-04-06 10:45:00,63.8,47.0,28.51,SSE,157,9.6,17.3,54,0.00,,,0.00,Rainwise IP-100,2013-04-06 15:45:00,
2013-04-06 10:50:00,64.2,47.0,28.52,SSW,202,9.1,18.7,54,0.00,,,0.00,Rainwise IP-100,2013-04-06 15:50:00,
2013-04-06 10:55:00,64.5,47.0,28.50,SE,135,15.6,17.5,53,0.00,,,0.00,Rainwise IP-100,2013-04-06 15:55:00,
2013-04-06 11:00:00,64.6,47.0,28.51,South,180,12.4,19.6,52,0.00,,,0.00,Rainwise IP-100,2013-04-06 16:00:00,
2013-04-06 11:05:00,64.7,47.0,28.50,South,180,11.7,19.6,52,0.00,,,0.00,Rainwise IP-100,2013-04-06 16:05:00,
2013-04-06 11:10:00,65.0,47.0,28.51,SSE,157,17.3,17.3,52,0.00,,,0.00,Rainwise IP-100,2013-04-06 16:10:00,
2013-04-06 11:15:00,65.4,47.5,28.51,SSW,202,11.7,20.5,52,0.00,,,0.00,Rainwise IP-100,2013-04-06 16:15:00,
2013-04-06 11:20:00,65.6,47.0,28.50,South,180,11.7,19.1,51,0.00,,,0.00,Rainwise IP-100,2013-04-06 16:20:00,
2013-04-06 11:25:00,66.0,47.5,28.50,SSE,157,15.2,21.5,51,0.00,,,0.00,Rainwise IP-100,2013-04-06 16:25:00,
2013-04-06 11:30:00,66.5,48.0,28.50,SSW,202,6.8,18.2,51,0.00,,,0.00,Rainwise IP-100,2013-04-06 16:30:00,
2013-04-06 11:35:00,67.2,48.0,28.50,SSW,202,9.1,16.1,51,0.00,,,0.00,Rainwise IP-100,2013-04-06 16:35:00,
2013-04-06 11:40:00,67.6,49.0,28.50,SE,135,10.3,17.5,51,0.00,,,0.00,Rainwise IP-100,2013-04-06 16:40:00,
2013-04-06 11:45:00,68.0,49.0,28.49,SSE,157,8.4,17.0,50,0.00,,,0.00,Rainwise IP-100,2013-04-06 16:45:00,
2013-04-06 11:50:00,68.6,49.0,28.49,SSW,202,11.2,16.1,50,0.00,,,0.00,Rainwise IP-100,2013-04-06 16:50:00,
2013-04-06 11:55:00,69.0,50.0,28.49,SSE,157,12.4,20.1,50,0.00,,,0.00,Rainwise IP-100,2013-04-06 16:55:00,
2013-04-06 12:00:00,69.2,49.0,28.49,SSE,157,6.8,16.1,49,0.00,,,0.00,Rainwise IP-100,2013-04-06 17:00:00,
2013-04-06 12:05:00,69.5,50.0,28.49,South,180,10.0,21.5,49,0.00,,,0.00,Rainwise IP-100,2013-04-06 17:05:00,
2013-04-06 12:10:00,69.8,49.0,28.49,SSW,202,7.5,20.1,48,0.00,,,0.00,Rainwise IP-100,2013-04-06 17:10:00,
2013-04-06 12:15:00,70.1,50.0,28.49,SW,225,9.1,18.4,48,0.00,,,0.00,Rainwise IP-100,2013-04-06 17:15:00,
2013-04-06 12:20:00,70.3,50.0,28.49,SSW,202,8.2,18.4,48,0.00,,,0.00,Rainwise IP-100,2013-04-06 17:20:00,
2013-04-06 12:25:00,70.4,50.0,28.48,SSW,202,16.1,20.3,48,0.00,,,0.00,Rainwise IP-100,2013-04-06 17:25:00,
2013-04-06 12:30:00,70.6,50.0,28.49,South,180,14.9,20.3,48,0.00,,,0.00,Rainwise IP-100,2013-04-06 17:30:00,
2013-04-06 12:35:00,70.8,50.0,28.49,South,180,13.3,21.5,48,0.00,,,0.00,Rainwise IP-100,2013-04-06 17:35:00,
2013-04-06 12:40:00,70.9,50.0,28.48,SSE,157,8.4,18.2,48,0.00,,,0.00,Rainwise IP-100,2013-04-06 17:40:00,
2013-04-06 12:45:00,71.2,50.5,28.47,South,180,8.2,15.9,48,0.00,,,0.00,Rainwise IP-100,2013-04-06 17:45:00,
2013-04-06 12:50:00,71.7,50.5,28.47,SSE,157,8.9,15.6,48,0.00,,,0.00,Rainwise IP-100,2013-04-06 17:50:00,
2013-04-06 12:55:00,71.8,50.5,28.47,SSW,202,9.8,19.1,47,0.00,,,0.00,Rainwise IP-100,2013-04-06 17:55:00,
2013-04-06 13:00:00,71.7,50.5,28.48,SSE,157,14.7,21.5,47,0.00,,,0.00,Rainwise IP-100,2013-04-06 18:00:00,
2013-04-06 13:05:00,71.8,50.5,28.47,SSW,202,7.7,17.0,47,0.00,,,0.00,Rainwise IP-100,2013-04-06 18:05:00,
2013-04-06 13:10:00,72.4,51.0,28.47,SSE,157,10.0,18.2,47,0.00,,,0.00,Rainwise IP-100,2013-04-06 18:10:00,
2013-04-06 13:15:00,72.9,51.0,28.47,SSW,202,13.8,19.4,46,0.00,,,0.00,Rainwise IP-100,2013-04-06 18:15:00,
2013-04-06 13:20:00,73.1,51.0,28.48,South,180,6.8,14.5,46,0.00,,,0.00,Rainwise IP-100,2013-04-06 18:20:00,
2013-04-06 13:25:00,73.4,51.0,28.47,SSE,157,6.3,15.6,46,0.00,,,0.00,Rainwise IP-100,2013-04-06 18:25:00,
2013-04-06 13:30:00,73.6,52.0,28.47,SSE,157,12.8,17.7,46,0.00,,,0.00,Rainwise IP-100,2013-04-06 18:30:00,
2013-04-06 13:35:00,73.7,51.0,28.46,SSW,202,5.6,16.6,45,0.00,,,0.00,Rainwise IP-100,2013-04-06 18:35:00,
2013-04-06 13:40:00,73.9,51.0,28.46,South,180,9.1,14.2,45,0.00,,,0.00,Rainwise IP-100,2013-04-06 18:40:00,
2013-04-06 13:45:00,74.2,52.0,28.46,South,180,7.7,19.8,45,0.00,,,0.00,Rainwise IP-100,2013-04-06 18:45:00,
2013-04-06 13:50:00,74.5,52.0,28.46,SSE,157,6.3,15.6,45,0.00,,,0.00,Rainwise IP-100,2013-04-06 18:50:00,
2013-04-06 13:55:00,74.9,53.0,28.45,SE,135,13.1,16.1,45,0.00,,,0.00,Rainwise IP-100,2013-04-06 18:55:00,
2013-04-06 14:00:00,75.3,52.0,28.45,SSE,157,7.9,14.7,44,0.00,,,0.00,Rainwise IP-100,2013-04-06 19:00:00,
2013-04-06 14:05:00,75.5,52.0,28.45,SSW,202,7.5,17.7,44,0.00,,,0.00,Rainwise IP-100,2013-04-06 19:05:00,
2013-04-06 14:10:00,75.7,52.0,28.44,SSE,157,12.1,19.1,44,0.00,,,0.00,Rainwise IP-100,2013-04-06 19:10:00,
2013-04-06 14:15:00,75.8,53.0,28.45,SSE,157,10.7,15.4,44,0.00,,,0.00,Rainwise IP-100,2013-04-06 19:15:00,
2013-04-06 14:20:00,76.1,53.0,28.44,SE,135,10.7,17.7,44,0.00,,,0.00,Rainwise IP-100,2013-04-06 19:20:00,
2013-04-06 14:25:00,76.3,52.0,28.44,South,180,11.2,20.8,43,0.00,,,0.00,Rainwise IP-100,2013-04-06 19:25:00,
2013-04-06 14:30:00,76.3,53.0,28.44,SW,225,8.9,15.2,44,0.00,,,0.00,Rainwise IP-100,2013-04-06 19:30:00,
2013-04-06 14:35:00,76.6,53.0,28.44,ESE,112,8.9,15.6,44,0.00,,,0.00,Rainwise IP-100,2013-04-06 19:35:00,
2013-04-06 14:40:00,76.8,53.0,28.43,SE,135,6.1,16.8,43,0.00,,,0.00,Rainwise IP-100,2013-04-06 19:40:00,
2013-04-06 14:45:00,76.9,53.0,28.43,SSE,157,5.8,24.0,43,0.00,,,0.00,Rainwise IP-100,2013-04-06 19:45:00,
2013-04-06 14:50:00,76.8,53.0,28.42,SE,135,6.1,14.5,43,0.00,,,0.00,Rainwise IP-100,2013-04-06 19:50:00,
2013-04-06 14:55:00,77.1,53.0,28.42,South,180,6.8,16.1,43,0.00,,,0.00,Rainwise IP-100,2013-04-06 19:55:00,
2013-04-06 15:00:00,77.4,53.5,28.42,South,180,7.2,16.6,43,0.00,,,0.00,Rainwise IP-100,2013-04-06 20:00:00,
2013-04-06 15:05:00,77.7,53.5,28.42,South,180,7.7,15.2,43,0.00,,,0.00,Rainwise IP-100,2013-04-06 20:05:00,
2013-04-06 15:10:00,78.1,53.5,28.42,SW,225,5.1,19.1,42,0.00,,,0.00,Rainwise IP-100,2013-04-06 20:10:00,
2013-04-06 15:16:00,78.4,53.5,28.41,South,180,11.0,14.7,42,0.00,,,0.00,Rainwise IP-100,2013-04-06 20:16:00,
2013-04-06 15:21:00,78.6,54.0,28.42,SSW,202,8.6,13.5,42,0.00,,,0.00,Rainwise IP-100,2013-04-06 20:21:00,
2013-04-06 15:26:00,78.7,54.0,28.42,SSE,157,6.8,14.5,42,0.00,,,0.00,Rainwise IP-100,2013-04-06 20:26:00,
2013-04-06 15:31:00,78.6,54.0,28.41,SSE,157,6.3,16.1,42,0.00,,,0.00,Rainwise IP-100,2013-04-06 20:31:00,
2013-04-06 15:37:00,79.0,54.0,28.40,SSW,202,5.8,13.3,42,0.00,,,0.00,Rainwise IP-100,2013-04-06 20:37:00,
2013-04-06 15:42:00,79.2,53.5,28.41,SSW,202,5.1,9.1,41,0.00,,,0.00,Rainwise IP-100,2013-04-06 20:42:00,
2013-04-06 15:47:00,79.1,53.5,28.41,SSW,202,5.8,8.9,41,0.00,,,0.00,Rainwise IP-100,2013-04-06 20:47:00,
2013-04-06 15:52:00,79.1,53.5,28.40,ESE,112,9.6,10.3,41,0.00,,,0.00,Rainwise IP-100,2013-04-06 20:52:00,
2013-04-06 16:47:00,79.1,53.5,28.40,ESE,112,9.6,10.3,41,0.00,,,0.00,Rainwise IP-100,2013-04-06 21:47:00,
2013-04-06 17:01:00,80.5,54.0,28.37,SSE,157,9.8,0.0,40,0.00,,,0.00,Rainwise IP-100,2013-04-06 22:01:00,
2013-04-06 17:06:00,80.6,54.5,28.37,SSE,157,10.0,12.4,41,0.00,,,0.00,Rainwise IP-100,2013-04-06 22:06:00,
2013-04-06 17:12:00,80.8,54.5,28.37,SSW,202,7.9,15.2,41,0.00,,,0.00,Rainwise IP-100,2013-04-06 22:12:00,
2013-04-06 17:17:00,80.7,54.5,28.37,SSE,157,5.4,15.9,41,0.00,,,0.00,Rainwise IP-100,2013-04-06 22:17:00,
2013-04-06 17:22:00,80.4,54.5,28.37,South,180,5.8,16.1,41,0.00,,,0.00,Rainwise IP-100,2013-04-06 22:22:00,
2013-04-06 17:27:00,80.4,55.0,28.37,South,180,8.6,12.4,42,0.00,,,0.00,Rainwise IP-100,2013-04-06 22:27:00,
2013-04-06 17:32:00,80.2,55.0,28.37,SSE,157,9.8,15.9,42,0.00,,,0.00,Rainwise IP-100,2013-04-06 22:32:00,
2013-04-06 17:37:00,80.0,55.0,28.37,SSE,157,14.9,16.6,43,0.00,,,0.00,Rainwise IP-100,2013-04-06 22:37:00,
2013-04-06 17:42:00,79.8,55.0,28.37,SE,135,12.1,16.3,43,0.00,,,0.00,Rainwise IP-100,2013-04-06 22:42:00,
2013-04-06 17:47:00,79.6,56.0,28.37,South,180,11.9,14.5,44,0.00,,,0.00,Rainwise IP-100,2013-04-06 22:47:00,
2013-04-06 17:52:00,79.2,55.0,28.37,South,180,8.2,15.6,44,0.00,,,0.00,Rainwise IP-100,2013-04-06 22:52:00,
2013-04-06 17:57:00,78.8,55.0,28.37,SSE,157,4.9,14.2,44,0.00,,,0.00,Rainwise IP-100,2013-04-06 22:57:00,
2013-04-06 18:02:00,78.7,56.0,28.38,SSE,157,9.8,14.2,45,0.00,,,0.00,Rainwise IP-100,2013-04-06 23:02:00,
2013-04-06 18:07:00,78.4,55.0,28.37,SSE,157,4.4,13.5,45,0.00,,,0.00,Rainwise IP-100,2013-04-06 23:07:00,
2013-04-06 18:12:00,78.3,56.0,28.37,SSE,157,7.0,12.6,46,0.00,,,0.00,Rainwise IP-100,2013-04-06 23:12:00,
2013-04-06 18:17:00,78.3,56.0,28.37,SSE,157,6.1,12.4,46,0.00,,,0.00,Rainwise IP-100,2013-04-06 23:17:00,
2013-04-06 18:22:00,78.2,56.0,28.37,South,180,9.6,12.6,46,0.00,,,0.00,Rainwise IP-100,2013-04-06 23:22:00,
2013-04-06 18:27:00,78.2,56.0,28.37,SSE,157,8.6,13.5,46,0.00,,,0.00,Rainwise IP-100,2013-04-06 23:27:00,
2013-04-06 18:32:00,78.3,56.0,28.37,SSE,157,7.7,16.8,46,0.00,,,0.00,Rainwise IP-100,2013-04-06 23:32:00,
2013-04-06 18:37:00,78.4,56.0,28.38,SE,135,12.4,15.6,46,0.00,,,0.00,Rainwise IP-100,2013-04-06 23:37:00,
2013-04-06 18:42:00,78.4,56.0,28.38,SSE,157,5.8,14.5,46,0.00,,,0.00,Rainwise IP-100,2013-04-06 23:42:00,
2013-04-06 18:47:00,78.5,56.5,28.37,SE,135,6.1,13.1,46,0.00,,,0.00,Rainwise IP-100,2013-04-06 23:47:00,
2013-04-06 18:52:00,78.3,56.0,28.37,South,180,7.0,13.1,46,0.00,,,0.00,Rainwise IP-100,2013-04-06 23:52:00,
2013-04-06 18:57:00,77.9,56.5,28.37,SSE,157,7.9,12.8,47,0.00,,,0.00,Rainwise IP-100,2013-04-06 23:57:00,
2013-04-06 19:02:00,77.7,56.0,28.37,SSE,157,9.6,13.5,47,0.00,,,0.00,Rainwise IP-100,2013-04-07 00:02:00,
2013-04-06 19:07:00,77.7,56.0,28.37,SSE,157,7.0,14.9,47,0.00,,,0.00,Rainwise IP-100,2013-04-07 00:07:00,
2013-04-06 19:12:00,77.7,56.0,28.36,SSW,202,8.4,16.3,47,0.00,,,0.00,Rainwise IP-100,2013-04-07 00:12:00,
2013-04-06 19:17:00,77.6,56.0,28.36,SSE,157,8.4,14.0,47,0.00,,,0.00,Rainwise IP-100,2013-04-07 00:17:00,
2013-04-06 19:22:00,77.5,56.5,28.37,SSE,157,9.3,13.8,48,0.00,,,0.00,Rainwise IP-100,2013-04-07 00:22:00,
2013-04-06 19:27:00,77.3,56.5,28.36,SSW,202,10.5,14.5,48,0.00,,,0.00,Rainwise IP-100,2013-04-07 00:27:00,
2013-04-06 19:32:00,76.9,56.0,28.36,South,180,5.6,16.8,48,0.00,,,0.00,Rainwise IP-100,2013-04-07 00:32:00,
2013-04-06 19:37:00,76.6,56.0,28.37,South,180,4.0,15.9,49,0.00,,,0.00,Rainwise IP-100,2013-04-07 00:37:00,
2013-04-06 19:42:00,76.1,55.0,28.37,South,180,7.5,13.3,49,0.00,,,0.00,Rainwise IP-100,2013-04-07 00:42:00,
2013-04-06 19:47:00,75.8,56.0,28.37,SSE,157,7.2,10.3,50,0.00,,,0.00,Rainwise IP-100,2013-04-07 00:47:00,
2013-04-06 19:52:00,75.6,56.0,28.37,SE,135,6.3,11.7,50,0.00,,,0.00,Rainwise IP-100,2013-04-07 00:52:00,
2013-04-06 19:57:00,75.3,56.0,28.38,SSE,157,4.2,9.6,50,0.00,,,0.00,Rainwise IP-100,2013-04-07 00:57:00,
2013-04-06 20:02:00,74.9,56.0,28.37,SSE,157,4.0,9.8,51,0.00,,,0.00,Rainwise IP-100,2013-04-07 01:02:00,
2013-04-06 20:07:00,74.5,56.0,28.38,SSE,157,3.7,7.7,52,0.00,,,0.00,Rainwise IP-100,2013-04-07 01:07:00,
2013-04-06 20:12:00,74.1,56.0,28.37,SSE,157,4.9,7.2,53,0.00,,,0.00,Rainwise IP-100,2013-04-07 01:12:00,
2013-04-06 20:17:00,73.7,56.0,28.38,ESE,112,5.4,8.9,54,0.00,,,0.00,Rainwise IP-100,2013-04-07 01:17:00,
2013-04-06 20:22:00,73.3,56.5,28.38,ESE,112,4.0,6.1,55,0.00,,,0.00,Rainwise IP-100,2013-04-07 01:22:00,
2013-04-06 20:27:00,73.0,56.5,28.38,SE,135,5.4,6.3,56,0.00,,,0.00,Rainwise IP-100,2013-04-07 01:27:00,
2013-04-06 20:32:00,72.8,56.0,28.38,SSE,157,4.4,9.3,56,0.00,,,0.00,Rainwise IP-100,2013-04-07 01:32:00,
2013-04-06 20:37:00,72.6,56.5,28.38,SSE,157,3.5,6.8,57,0.00,,,0.00,Rainwise IP-100,2013-04-07 01:37:00,
2013-04-06 20:42:00,72.5,56.5,28.38,SSE,157,3.0,8.9,57,0.00,,,0.00,Rainwise IP-100,2013-04-07 01:42:00,
2013-04-06 20:47:00,72.2,56.5,28.38,SE,135,3.0,6.8,57,0.00,,,0.00,Rainwise IP-100,2013-04-07 01:47:00,
2013-04-06 20:52:00,72.0,56.5,28.38,SE,135,1.9,7.0,58,0.00,,,0.00,Rainwise IP-100,2013-04-07 01:52:00,
2013-04-06 20:57:00,71.8,56.0,28.39,SSE,157,4.7,6.8,58,0.00,,,0.00,Rainwise IP-100,2013-04-07 01:57:00,
2013-04-06 21:02:00,71.7,56.5,28.39,SE,135,4.7,6.5,59,0.00,,,0.00,Rainwise IP-100,2013-04-07 02:02:00,
2013-04-06 21:07:00,71.5,56.5,28.39,SSE,157,5.1,7.0,59,0.00,,,0.00,Rainwise IP-100,2013-04-07 02:07:00,
2013-04-06 21:12:00,71.4,56.5,28.39,SSE,157,3.3,6.5,60,0.00,,,0.00,Rainwise IP-100,2013-04-07 02:12:00,
2013-04-06 21:17:00,71.1,56.5,28.38,SE,135,2.8,6.8,60,0.00,,,0.00,Rainwise IP-100,2013-04-07 02:17:00,
2013-04-06 21:22:00,70.7,56.5,28.39,ESE,112,4.4,8.2,61,0.00,,,0.00,Rainwise IP-100,2013-04-07 02:22:00,
2013-04-06 21:27:00,70.4,56.5,28.39,SSE,157,2.8,7.7,61,0.00,,,0.00,Rainwise IP-100,2013-04-07 02:27:00,
2013-04-06 21:32:00,70.3,57.0,28.39,SE,135,7.5,9.6,62,0.00,,,0.00,Rainwise IP-100,2013-04-07 02:32:00,
2013-04-06 21:37:00,70.1,56.5,28.39,ESE,112,3.0,8.4,62,0.00,,,0.00,Rainwise IP-100,2013-04-07 02:37:00,
2013-04-06 21:42:00,69.9,57.0,28.40,SSE,157,8.4,8.4,63,0.00,,,0.00,Rainwise IP-100,2013-04-07 02:42:00,
2013-04-06 21:47:00,69.7,57.0,28.40,SSE,157,2.8,8.4,64,0.00,,,0.00,Rainwise IP-100,2013-04-07 02:47:00,
2013-04-06 21:52:00,69.5,57.0,28.40,SE,135,6.3,7.0,64,0.00,,,0.00,Rainwise IP-100,2013-04-07 02:52:00,
2013-04-06 21:57:00,69.3,56.5,28.40,SE,135,2.6,7.2,64,0.00,,,0.00,Rainwise IP-100,2013-04-07 02:57:00,
2013-04-06 22:02:00,69.0,56.5,28.41,SE,135,3.0,6.5,65,0.00,,,0.00,Rainwise IP-100,2013-04-07 03:02:00,
2013-04-06 22:07:00,68.7,56.5,28.41,South,180,3.3,6.1,66,0.00,,,0.00,Rainwise IP-100,2013-04-07 03:07:00,
2013-04-06 22:12:00,68.5,56.5,28.41,SE,135,3.7,7.2,66,0.00,,,0.00,Rainwise IP-100,2013-04-07 03:12:00,
2013-04-06 22:17:00,68.3,57.0,28.42,SE,135,3.5,5.4,67,0.00,,,0.00,Rainwise IP-100,2013-04-07 03:17:00,
2013-04-06 22:22:00,68.0,56.5,28.41,SE,135,2.8,5.1,67,0.00,,,0.00,Rainwise IP-100,2013-04-07 03:22:00,
2013-04-06 22:27:00,67.6,56.5,28.41,SSE,157,5.6,5.6,68,0.00,,,0.00,Rainwise IP-100,2013-04-07 03:27:00,
2013-04-06 22:32:00,67.4,57.0,28.41,SE,135,3.3,5.8,69,0.00,,,0.00,Rainwise IP-100,2013-04-07 03:32:00,
2013-04-06 22:37:00,67.1,57.0,28.42,SSE,157,2.3,4.9,70,0.00,,,0.00,Rainwise IP-100,2013-04-07 03:37:00,
2013-04-06 22:42:00,66.8,56.5,28.42,SSE,157,2.6,3.3,70,0.00,,,0.00,Rainwise IP-100,2013-04-07 03:42:00,
2013-04-06 22:47:00,66.5,57.0,28.42,SE,135,2.1,4.0,71,0.00,,,0.00,Rainwise IP-100,2013-04-07 03:47:00,
2013-04-06 22:52:00,66.3,57.0,28.41,SE,135,2.8,4.2,72,0.00,,,0.00,Rainwise IP-100,2013-04-07 03:52:00,
2013-04-06 22:57:00,66.0,56.5,28.41,SSE,157,3.5,3.7,72,0.00,,,0.00,Rainwise IP-100,2013-04-07 03:57:00,
2013-04-06 23:00:00,65.8,57.0,28.42,SE,135,1.6,4.7,73,0.00,,,0.00,Rainwise IP-100,2013-04-07 04:00:00,
2013-04-06 23:01:00,65.8,57.0,28.41,SSE,157,1.6,4.7,73,0.00,,,0.00,Rainwise IP-100,2013-04-07 04:01:00,
2013-04-06 23:04:00,65.6,56.5,28.42,SSE,157,2.3,3.7,73,0.00,,,0.00,Rainwise IP-100,2013-04-07 04:04:00,
2013-04-06 23:09:00,65.4,56.5,28.42,South,180,1.9,2.8,73,0.00,,,0.00,Rainwise IP-100,2013-04-07 04:09:00,
2013-04-06 23:14:00,65.2,56.5,28.42,SSE,157,2.6,3.5,74,0.00,,,0.00,Rainwise IP-100,2013-04-07 04:14:00,
2013-04-06 23:19:00,65.1,57.0,28.42,SSE,157,2.6,3.5,75,0.00,,,0.00,Rainwise IP-100,2013-04-07 04:19:00,
2013-04-06 23:24:00,65.0,57.0,28.42,SSE,157,2.6,4.0,75,0.00,,,0.00,Rainwise IP-100,2013-04-07 04:24:00,
2013-04-06 23:29:00,64.8,57.0,28.42,SSE,157,1.4,4.2,75,0.00,,,0.00,Rainwise IP-100,2013-04-07 04:29:00,
2013-04-06 23:34:00,64.7,56.5,28.42,SSE,157,0.0,3.0,75,0.00,,,0.00,Rainwise IP-100,2013-04-07 04:34:00,
2013-04-06 23:39:00,64.4,56.5,28.42,SSE,157,1.6,3.3,76,0.00,,,0.00,Rainwise IP-100,2013-04-07 04:39:00,
2013-04-06 23:44:00,64.2,56.5,28.42,SSE,157,1.4,2.6,77,0.00,,,0.00,Rainwise IP-100,2013-04-07 04:44:00,
2013-04-06 23:49:00,64.0,56.5,28.42,SSE,157,0.0,1.9,77,0.00,,,0.00,Rainwise IP-100,2013-04-07 04:49:00,
2013-04-06 23:54:00,63.8,57.0,28.42,SSE,157,0.0,2.1,78,0.00,,,0.00,Rainwise IP-100,2013-04-07 04:54:00,
2013-04-06 23:59:00,63.6,56.5,28.42,SSE,157,0.0,2.1,78,0.00,,,0.00,Rainwise IP-100,2013-04-07 04:59:00,